STARLINK-31540 (59542 NORAD) Tracking and Keplerian Element Data

This shows tracking and keplerian element data for the satellite.

Feedback or suggestion? Click here.




ElementValue
Catalog59542
NameSTARLINK-31540
Epoch Orbit898
Epoch Day159.98811636
Epoch Year2024
RAAN27.9536
Inclination43.0022
Eccentricity0.0001538
Argument of Perigee261.0469
Mean Anonmoly99.0214
Mean Motion15.40709696
Decay Rate1.21E-05
L11 59542U 24074J 24159.98811636 .00001210 00000+0 36228-4 0 9993
L22 59542 43.0022 27.9536 0001538 261.0469 99.0214 15.40709696 8982



Live tracking and technical data element details for STARLINK-31540 (NORAD 59542). STARLINK-31540 can be tracked NOW for your location showing map with azimuth and elevation plus other details from your city location.







IsCatalogInMostPopularTable: catalog: 59542, numindb: 13
Update: records affected: 1



GetName: 59542 STARLINK-31540

Hit Count: updated at: Fri, 14 Jun 2024 17:49:12 GMT